Volver al catálogo

BREEZE-M R/B

ActivoHEO
NORAD 36102·ROCKET BODY·🇷🇺 Russia

Lanzado Nov 24, 2009 desde Baikonur Cosmodrome

Loading…

Próximos Pases (próximas 24 horas)

TLE

ActualizadoSource: Space-Track

Época: Sep 13, 2026, 16:19 UTC

1 36102U 09065B   26256.68045428 -.00000046  00000-0  00000-0 0  9991
2 36102  20.3267 207.7762 5900604 279.1332 327.4892  2.20879974135389

Sigue BREEZE-M R/B en tiempo real con AllMySat

Download on the App Store